Simultaneous Nadir Overpasses (SNOs) Predictions

Prediction of SNOs between GOES-14 and NOAA-20 Satellite Orbit:

Table of predicted SNOs for the next 14.0 days since TLE Epoch: 4/17/2020
Index Date Time (GOES-14) GOES-14 Lat,Lon NOAA-20 Lat,Lon Distance(km) Time Diff (sec)
1 04/18/2020 08:08:19 0.14,-104.14 -0.68,-100.52 412.14 80
2 04/19/2020 20:30:15 -0.14,-104.15 -0.51,-105.83 191.76 80
3 04/20/2020 20:08:50 -0.14,-104.14 0.52,-101.30 324.26 80
4 04/22/2020 08:30:38 0.13,-104.13 0.66,-106.57 277.96 80
5 04/23/2020 08:14:32 0.14,-104.14 -0.31,-102.03 239.31 80
6 04/24/2020 20:36:30 -0.12,-104.17 -0.82,-107.35 362.54 80
7 04/25/2020 20:15:04 -0.13,-104.16 0.16,-102.81 153.33 80
8 04/27/2020 08:36:51 0.11,-104.13 1.03,-108.08 451.61 80
9 04/28/2020 08:20:47 0.12,-104.13 -0.00,-103.56 65.33 80
10 04/30/2020 20:23:59 -0.12,-104.17 -0.15,-104.34 19.11 80




NCC Satellite Simultaneous Nadir Overpasses (SNOs) Prediction Service
